When you browse on this site, cookies collect data to enhance your experience and personalize the content and advertising you see.
Visit our Privacy Policy to learn more. By continuing to use the site, you agree to this use of cookies and data.
  • In Germany
  • List of Countries
  • For 7 days
  • Water Temperature
  • Satellite Maps
  • Weather Map
  • Weather Widgets
  • user-avatar
    Login

    Hourly Weather Malyy Kunaley

    Today, 22 February, Friday

    Time Temperature Precipitation Wind Pressure Humidity
    00:00 -9°C° 0 mm 1 mps 713 mmHg 76%
    01:00 -9°C° 0 mm 1 mps 713 mmHg 77%
    02:00 -10°C° 0 mm 2 mps 713 mmHg 77%
    03:00 -10°C° 0 mm 2 mps 713 mmHg 77%
    04:00 -10°C° 0 mm 2 mps 713 mmHg 78%
    05:00 -10°C° 0 mm 2 mps 713 mmHg 77%
    06:00 -10°C° 0 mm 2 mps 713 mmHg 77%
    07:00 -10°C° 0 mm 2 mps 713 mmHg 75%
    08:00 -8°C° 0 mm 2 mps 713 mmHg 69%
    09:00 -5°C° 0 mm 2 mps 713 mmHg 64%
    10:00 -2°C° 0 mm 2 mps 713 mmHg 58%
    11:00 -1°C° 0 mm 2 mps 712 mmHg 56%
    12:00 +1°C° 0 mm 2 mps 712 mmHg 54%
    13:00 +2°C° 0 mm 2 mps 711 mmHg 52%
    14:00 +1°C° 0 mm 2 mps 711 mmHg 56%
    15:00 -1°C° 0 mm 2 mps 711 mmHg 60%
    16:00 0°C° 0 mm 1 mps 711 mmHg 64%
    17:00 -2°C° 0 mm 1 mps 711 mmHg 69%
    18:00 -3°C° 0 mm 1 mps 711 mmHg 73%
    19:00 -6°C° 0 mm 1 mps 712 mmHg 77%
    20:00 -6°C° 0 mm 1 mps 712 mmHg 79%
    21:00 -6°C° 0 mm 1 mps 713 mmHg 81%
    22:00 -4°C° 0 mm 1 mps 713 mmHg 84%
    23:00 -4°C° 0.1 mm 1 mps 714 mmHg 87%

    Tomorrow, 23 February, Saturday

    Time Temperature Precipitation Wind Pressure Humidity
    00:00 -6°C° 0.1 mm 1 mps 714 mmHg 90%
    01:00 -6°C° 0.1 mm 1 mps 714 mmHg 93%
    02:00 -6°C° 0.1 mm 1 mps 714 mmHg 94%
    03:00 -6°C° 0.1 mm 1 mps 714 mmHg 95%
    04:00 -6°C° 0.1 mm 1 mps 715 mmHg 96%
    05:00 -8°C° 0 mm 1 mps 715 mmHg 96%
    06:00 -9°C° 0 mm 1 mps 715 mmHg 96%
    07:00 -10°C° 0 mm 1 mps 715 mmHg 96%
    08:00 -8°C° 0 mm 1 mps 715 mmHg 87%
    09:00 -7°C° 0 mm 1 mps 715 mmHg 78%
    10:00 -4°C° 0 mm 1 mps 716 mmHg 69%
    11:00 -5°C° 0 mm 2 mps 715 mmHg 66%
    12:00 -5°C° 0 mm 2 mps 715 mmHg 64%
    13:00 -4°C° 0 mm 2 mps 714 mmHg 61%
    14:00 -4°C° 0 mm 2 mps 714 mmHg 64%
    15:00 -5°C° 0 mm 2 mps 714 mmHg 66%
    16:00 -5°C° 0 mm 2 mps 714 mmHg 69%
    17:00 -6°C° 0 mm 1 mps 714 mmHg 73%
    18:00 -8°C° 0 mm 1 mps 714 mmHg 77%
    19:00 -9°C° 0 mm 1 mps 715 mmHg 81%
    20:00 -10°C° 0 mm 1 mps 715 mmHg 82%
    21:00 -10°C° 0 mm 1 mps 715 mmHg 82%
    22:00 -11°C° 0 mm 1 mps 715 mmHg 82%
    23:00 -11°C° 0 mm 1 mps 715 mmHg 83%

    Day after tomorrow, 24 February, Sunday

    Time Temperature Precipitation Wind Pressure Humidity
    00:00 -11°C° 0 mm 1 mps 715 mmHg 84%
    01:00 -11°C° 0 mm 1 mps 715 mmHg 85%
    02:00 -11°C° 0 mm 1 mps 715 mmHg 85%
    03:00 -13°C° 0 mm 2 mps 715 mmHg 86%
    04:00 -14°C° 0 mm 2 mps 715 mmHg 87%
    05:00 -14°C° 0 mm 2 mps 715 mmHg 87%
    06:00 -14°C° 0 mm 2 mps 715 mmHg 87%
    07:00 -14°C° 0 mm 2 mps 715 mmHg 87%
    08:00 -10°C° 0 mm 2 mps 715 mmHg 82%
    09:00 -8°C° 0 mm 2 mps 715 mmHg 76%
    10:00 -6°C° 0 mm 2 mps 715 mmHg 71%
    11:00 -5°C° 0 mm 2 mps 714 mmHg 69%
    12:00 -5°C° 0 mm 3 mps 714 mmHg 67%
    13:00 -4°C° 0 mm 3 mps 713 mmHg 66%
    14:00 -4°C° 0 mm 3 mps 713 mmHg 68%
    15:00 -3°C° 0 mm 2 mps 713 mmHg 70%
    16:00 -4°C° 0 mm 2 mps 712 mmHg 72%
    17:00 -5°C° 0 mm 2 mps 712 mmHg 77%
    18:00 -7°C° 0 mm 2 mps 712 mmHg 82%
    19:00 -9°C° 0 mm 2 mps 713 mmHg 87%
    20:00 -9°C° 0 mm 2 mps 713 mmHg 86%
    21:00 -10°C° 0 mm 2 mps 713 mmHg 85%
    22:00 -10°C° 0 mm 2 mps 713 mmHg 85%
    23:00 -10°C° 0 mm 2 mps 712 mmHg 84%

    25 February, Monday

    Time Temperature Precipitation Wind Pressure Humidity
    00:00 -10°C° 0 mm 2 mps 712 mmHg 84%
    01:00 -10°C° 0 mm 2 mps 712 mmHg 83%
    02:00 -12°C° 0 mm 2 mps 712 mmHg 83%
    03:00 -12°C° 0 mm 2 mps 712 mmHg 83%
    04:00 -12°C° 0 mm 2 mps 711 mmHg 82%
    05:00 -12°C° 0 mm 2 mps 711 mmHg 81%
    06:00 -12°C° 0 mm 2 mps 711 mmHg 80%
    07:00 -12°C° 0 mm 2 mps 711 mmHg 79%
    08:00 -9°C° 0 mm 2 mps 711 mmHg 73%
    09:00 -6°C° 0 mm 2 mps 710 mmHg 66%
    10:00 -3°C° 0 mm 2 mps 710 mmHg 60%
    11:00 -2°C° 0 mm 2 mps 709 mmHg 58%
    12:00 -1°C° 0 mm 3 mps 709 mmHg 56%
    13:00 0°C° 0 mm 3 mps 708 mmHg 54%
    14:00 -1°C° 0 mm 2 mps 708 mmHg 57%
    15:00 -1°C° 0 mm 2 mps 707 mmHg 60%
    16:00 -1°C° 0 mm 2 mps 707 mmHg 62%
    17:00 -3°C° 0 mm 2 mps 707 mmHg 67%
    18:00 -6°C° 0 mm 2 mps 707 mmHg 73%
    19:00 -8°C° 0 mm 2 mps 708 mmHg 78%
    20:00 -8°C° 0 mm 2 mps 708 mmHg 78%
    21:00 -9°C° 0 mm 2 mps 708 mmHg 78%
    22:00 -9°C° 0 mm 2 mps 708 mmHg 79%
    23:00 -9°C° 0 mm 2 mps 708 mmHg 79%

    26 February, Tuesday

    Time Temperature Precipitation Wind Pressure Humidity
    00:00 -9°C° 0 mm 1 mps 708 mmHg 80%
    01:00 -9°C° 0 mm 1 mps 708 mmHg 80%
    02:00 -9°C° 0 mm 1 mps 708 mmHg 81%
    03:00 -10°C° 0 mm 1 mps 708 mmHg 81%
    04:00 -10°C° 0 mm 1 mps 708 mmHg 82%
    05:00 -10°C° 0 mm 1 mps 708 mmHg 82%
    06:00 -11°C° 0 mm 1 mps 709 mmHg 82%
    07:00 -11°C° 0 mm 1 mps 709 mmHg 82%
    08:00 -8°C° 0 mm 1 mps 709 mmHg 76%
    09:00 -6°C° 0 mm 0 mps 709 mmHg 70%
    10:00 -3°C° 0 mm 0 mps 710 mmHg 64%
    11:00 -2°C° 0 mm 0 mps 709 mmHg 62%
    12:00 0°C° 0 mm 1 mps 709 mmHg 61%
    13:00 +1°C° 0 mm 1 mps 708 mmHg 59%
    14:00 0°C° 0 mm 1 mps 708 mmHg 62%
    15:00 0°C° 0 mm 1 mps 708 mmHg 65%
    16:00 -1°C° 0 mm 1 mps 708 mmHg 68%
    17:00 -4°C° 0 mm 0 mps 708 mmHg 73%
    18:00 -6°C° 0 mm 0 mps 708 mmHg 78%
    19:00 -8°C° 0 mm 0 mps 708 mmHg 84%
    20:00 -8°C° 0 mm 0 mps 709 mmHg 84%
    21:00 -9°C° 0 mm 0 mps 709 mmHg 85%
    22:00 -9°C° 0 mm 1 mps 709 mmHg 86%
    23:00 -9°C° 0 mm 1 mps 709 mmHg 86%

    27 February, Wednesday

    Time Temperature Precipitation Wind Pressure Humidity
    00:00 -9°C° 0 mm 1 mps 709 mmHg 86%
    01:00 -10°C° 0 mm 1 mps 709 mmHg 87%
    02:00 -10°C° 0 mm 1 mps 709 mmHg 87%
    03:00 -10°C° 0 mm 1 mps 709 mmHg 87%
    04:00 -11°C° 0 mm 1 mps 709 mmHg 86%
    05:00 -11°C° 0 mm 1 mps 709 mmHg 86%
    06:00 -11°C° 0 mm 1 mps 709 mmHg 86%
    07:00 -11°C° 0 mm 1 mps 710 mmHg 85%
    08:00 -9°C° 0 mm 1 mps 710 mmHg 79%
    09:00 -6°C° 0 mm 1 mps 710 mmHg 72%
    10:00 -4°C° 0 mm 0 mps 710 mmHg 65%
    11:00 -2°C° 0 mm 1 mps 710 mmHg 63%
    12:00 -1°C° 0 mm 1 mps 709 mmHg 61%
    13:00 0°C° 0 mm 1 mps 709 mmHg 59%
    14:00 0°C° 0 mm 1 mps 709 mmHg 62%
    15:00 -1°C° 0 mm 1 mps 708 mmHg 65%
    16:00 -1°C° 0 mm 1 mps 708 mmHg 68%
    17:00 -3°C° 0 mm 1 mps 708 mmHg 73%
    18:00 -6°C° 0 mm 0 mps 709 mmHg 78%
    19:00 -8°C° 0 mm 0 mps 709 mmHg 83%
    20:00 -8°C° 0 mm 0 mps 709 mmHg 84%
    21:00 -8°C° 0 mm 1 mps 709 mmHg 84%
    22:00 -9°C° 0 mm 1 mps 709 mmHg 85%
    23:00 -9°C° 0 mm 1 mps 709 mmHg 85%
    Show more